This is the latest recevied weather packets stored in our database for station/object KB3AWQ. If no packets are shown the sender has not sent any weather packets the latest 1 day(s).
| Time | Temp. | Humidity | Pressure | Rain* | Wind** | Luminosity | Snow |
|---|---|---|---|---|---|---|---|
| 1778068167 | 14.44° C | 99% | 1007.1 hPa | 1.02 mm | - | 17 W/m² | - |
| 1778067866 | 14.44° C | 99% | 1007.2 hPa | 1.02 mm | - | 14 W/m² | - |
| 1778067567 | 14.44° C | 99% | 1007.1 hPa | 1.02 mm | - | 19 W/m² | - |
| 1778066969 | 14.44° C | 99% | 1007.1 hPa | 1.27 mm | - | 23 W/m² | - |
| 1778066368 | 14.44° C | 99% | 1007 hPa | 1.27 mm | - | 11 W/m² | - |
| 1778065769 | 14.44° C | 99% | 1007 hPa | 1.27 mm | - | 12 W/m² | - |
| 1778064569 | 14.44° C | 100% | 1006.9 hPa | 0.76 mm | - | 7 W/m² | - |
| 1778064267 | 14.44° C | 100% | 1006.9 hPa | 0.76 mm | - | 7 W/m² | - |
| 1778063067 | 14.44° C | 99% | 1007 hPa | 0.51 mm | - | 2 W/m² | - |
| 1778061266 | 14.44° C | 98% | 1006.9 hPa | 0.76 mm | - | 0 W/m² | - |
| 1778060667 | 14.44° C | 98% | 1006.9 hPa | 0.76 mm | - | 0 W/m² | - |
| 1778060367 | 14.44° C | 98% | 1006.9 hPa | 1.02 mm | - | 0 W/m² | - |
| 1778060067 | 14.44° C | 97% | 1006.9 hPa | 1.02 mm | - | 0 W/m² | - |
| 1778059767 | 14.44° C | 97% | 1006.9 hPa | 0.76 mm | - | 0 W/m² | - |
| 1778059467 | 14.44° C | 97% | 1006.9 hPa | 0.76 mm | - | 0 W/m² | - |
| 1778058867 | 14.44° C | 96% | 1007 hPa | 0.51 mm | - | 0 W/m² | - |
| 1778058267 | 14.44° C | 95% | 1007 hPa | 0.25 mm | - | 0 W/m² | - |
| 1778057967 | 14.44° C | 95% | 1007 hPa | 0.25 mm | - | 0 W/m² | - |
| 1778057067 | 14.44° C | 95% | 1007.1 hPa | 0.25 mm | - | 0 W/m² | - |
| 1778054667 | 15° C | 92% | 1007.2 hPa | 0.25 mm | - | 0 W/m² | - |
| 1778054367 | 15° C | 91% | 1007.1 hPa | 0 mm | - | 0 W/m² | - |
| 1778054067 | 15° C | 90% | 1006.9 hPa | 0 mm | - | 0 W/m² | - |
| 1778053767 | 15° C | 90% | 1006.9 hPa | 0 mm | - | 0 W/m² | - |
| 1778052566 | 15° C | 88% | 1006.9 hPa | 0 mm | - | 0 W/m² | - |
| 1778051967 | 15° C | 88% | 1006.8 hPa | 0 mm | - | 0 W/m² | - |
* Rain latest hour (hover to see other rain measurements)
** Current wind speed in m/s (hover to see current wind gust speed)